Location: *
(37.4917°N, 71.5558°E)
Time: 08:47:59
(UTC+00:00)

CENTAUR R/B - Pass Details

Date: 09 April 2020
Orbit: 761 x 1427 km, 63.5° (Epoch: 29 May)

Event Time Altitude Azimuth Distance (km) Brightness Sun altitude
Exits shadow 23:25:42 17° 282° (WNW) 2,208 3.9 -16.0°
Maximum altitude 23:28:49 24° 321° (NW) 1,943 3.9 -15.4°
Drops below altitude 10° 23:34:16 10° 13° (NNE) 2,967 5.5 -14.5°
Sets 23:37:49 0° 27° (NNE) 4,055 6.5 -13.8°
